OpenBCM V1.08-5-g2f4a (Linux)

Packet Radio Mailbox

IZ3LSV

[San Dona' di P. JN]

 Login: GUEST





  
CX2SA  > KEPS     15.06.12 04:31l 347 Lines 9161 Bytes #999 (0) @ WW
BID : ORB12166.M
Read: GUEST
Subj: Orbital Elements  12166.MISC
Path: IZ3LSV<IQ5KG<IK1NHL<CX2SA
Sent: 120615/0224Z @:CX2SA.SAL.URY.SA #:61422 [Salto] FBB7.00e $:ORB12166.M
From: CX2SA@CX2SA.SAL.URY.SA
To  : KEPS@AMSAT


HR AMSAT ORBITAL ELEMENTS FOR MANNED AND MISCELLANEOUS SATELLITES
FROM WA5QGD FORT WORTH,TX June 14, 2012
Send SUBSCRIBE KEPS/UNSUBSCRIBE KEPS to majordomo@amsat.org only
BID: ORB12166.M
TO ALL RADIO AMATEURS BT

Satellite: HUBBLE
Catalog number: 20580
Epoch time:      12166.20154201
Element set:      17
Inclination:      028.4688 deg
RA of node:       163.0832 deg
Eccentricity:    0.0003008
Arg of perigee:   027.5789 deg
Mean anomaly:     332.4986 deg
Mean motion:   15.02553162 rev/day
Decay rate:      1.394e-05 rev/day^2
Epoch rev:            1428
Checksum:              267

Satellite: ISS
Catalog number: 25544
Epoch time:      12166.51132299
Element set:     745
Inclination:      051.6380 deg
RA of node:       135.7761 deg
Eccentricity:    0.0010768
Arg of perigee:   066.6258 deg
Mean anomaly:     034.5777 deg
Mean motion:   15.56363414 rev/day
Decay rate:     1.2501e-04 rev/day^2
Epoch rev:           77759
Checksum:              314

Satellite: CO-58
Catalog number: 28895
Epoch time:      12166.41139944
Element set:     200
Inclination:      097.9136 deg
RA of node:       032.8059 deg
Eccentricity:    0.0018498
Arg of perigee:   156.0953 deg
Mean anomaly:     204.1116 deg
Mean motion:   14.60644161 rev/day
Decay rate:       8.56e-06 rev/day^2
Epoch rev:           35325
Checksum:              314

Satellite: FALCON
Catalog number: 30776
Epoch time:      12165.81193135
Element set:    0379
Inclination:      035.4329 deg
RA of node:       297.4563 deg
Eccentricity:    0.0002425
Arg of perigee:   340.4730 deg
Mean anomaly:     019.5894 deg
Mean motion:   15.07562851 rev/day
Decay rate:      4.349e-05 rev/day^2
Epoch rev:           28974
Checksum:              318

Satellite: MAST
Catalog number: 31126
Epoch time:      12165.98890774
Element set:    0491
Inclination:      097.8746 deg
RA of node:       177.2775 deg
Eccentricity:    0.0094642
Arg of perigee:   120.1485 deg
Mean anomaly:     240.9129 deg
Mean motion:   14.54165738 rev/day
Decay rate:       6.16e-06 rev/day^2
Epoch rev:           27380
Checksum:              330

Satellite: CAPE1
Catalog number: 31130
Epoch time:      12165.54008777
Element set:    0493
Inclination:      097.8837 deg
RA of node:       173.2387 deg
Eccentricity:    0.0102354
Arg of perigee:   134.5899 deg
Mean anomaly:     226.3715 deg
Mean motion:   14.52945770 rev/day
Decay rate:       9.34e-06 rev/day^2
Epoch rev:           27324
Checksum:              318

Satellite: COMPASS
Catalog number: 32787
Epoch time:      12166.16992214
Element set:     327
Inclination:      097.7999 deg
RA of node:       227.5713 deg
Eccentricity:    0.0016418
Arg of perigee:   072.3237 deg
Mean anomaly:     287.9760 deg
Mean motion:   14.84013746 rev/day
Decay rate:      2.300e-05 rev/day^2
Epoch rev:           22336
Checksum:              316

Satellite: AAUSAT2
Catalog number: 32788
Epoch time:      12165.87057394
Element set:    0320
Inclination:      097.8041 deg
RA of node:       227.6604 deg
Eccentricity:    0.0016394
Arg of perigee:   073.2553 deg
Mean anomaly:     287.0449 deg
Mean motion:   14.84336262 rev/day
Decay rate:      2.944e-05 rev/day^2
Epoch rev:           22334
Checksum:              311

Satellite: DO-64
Catalog number: 32789
Epoch time:      12165.71944018
Element set:    0336
Inclination:      097.8119 deg
RA of node:       229.5182 deg
Eccentricity:    0.0015828
Arg of perigee:   070.8649 deg
Mean anomaly:     289.4275 deg
Mean motion:   14.85825234 rev/day
Decay rate:      3.932e-05 rev/day^2
Epoch rev:           22336
Checksum:              343

Satellite: CO-66
Catalog number: 32791
Epoch time:      12165.61870398
Element set:    0319
Inclination:      097.7992 deg
RA of node:       226.7777 deg
Eccentricity:    0.0016853
Arg of perigee:   074.4925 deg
Mean anomaly:     285.8148 deg
Mean motion:   14.83428705 rev/day
Decay rate:      2.321e-05 rev/day^2
Epoch rev:           22321
Checksum:              344

Satellite: RS-30
Catalog number: 32953
Epoch time:      12166.47277770
Element set:     868
Inclination:      082.5018 deg
RA of node:       296.8249 deg
Eccentricity:    0.0017890
Arg of perigee:   316.5738 deg
Mean anomaly:     043.3935 deg
Mean motion:   12.43024433 rev/day
Decay rate:        1.0e-07 rev/day^2
Epoch rev:           18422
Checksum:              308

Satellite: TACSAT-3
Catalog number: 35001
Epoch time:      12121.72616188
Element set:    0001
Inclination:      040.4259 deg
RA of node:       351.8840 deg
Eccentricity:    0.0007146
Arg of perigee:   275.2650 deg
Mean anomaly:     085.0693 deg
Mean motion:   16.45157000 rev/day
Decay rate:  1.5204951e-01 rev/day^2
Epoch rev:           16699
Checksum:              280

Satellite: PHARMSAT
Catalog number: 35002
Epoch time:      12165.91022011
Element set:     934
Inclination:      040.4569 deg
RA of node:       088.3726 deg
Eccentricity:    0.0011416
Arg of perigee:   222.5029 deg
Mean anomaly:     137.4917 deg
Mean motion:   15.84823837 rev/day
Decay rate:    1.60764e-03 rev/day^2
Epoch rev:           17380
Checksum:              284

Satellite: METEOR-M
Catalog number: 35865
Epoch time:      12166.33443269
Element set:     501
Inclination:      098.6548 deg
RA of node:       220.7141 deg
Eccentricity:    0.0003377
Arg of perigee:   066.7401 deg
Mean anomaly:     293.4130 deg
Mean motion:   14.21864089 rev/day
Decay rate:       -7.0e-08 rev/day^2
Epoch rev:           14219
Checksum:              286

Satellite: RS-38
Catalog number: 35869
Epoch time:      12166.28565212
Element set:     507
Inclination:      098.6501 deg
RA of node:       220.6618 deg
Eccentricity:    0.0005512
Arg of perigee:   063.7640 deg
Mean anomaly:     296.4099 deg
Mean motion:   14.22074258 rev/day
Decay rate:        4.2e-07 rev/day^2
Epoch rev:           14220
Checksum:              294

Satellite: JUGNU
Catalog number: 37839
Epoch time:      12165.92014309
Element set:    0167
Inclination:      019.9624 deg
RA of node:       018.0225 deg
Eccentricity:    0.0018755
Arg of perigee:   185.8980 deg
Mean anomaly:     174.1127 deg
Mean motion:   14.12060277 rev/day
Decay rate:       6.20e-06 rev/day^2
Epoch rev:           03478
Checksum:              293

Satellite: SRMSAT
Catalog number: 37841
Epoch time:      12165.89947223
Element set:    0168
Inclination:      019.9723 deg
RA of node:       022.9606 deg
Eccentricity:    0.0011794
Arg of perigee:   157.3933 deg
Mean anomaly:     202.7030 deg
Mean motion:   14.10143625 rev/day
Decay rate:       2.64e-06 rev/day^2
Epoch rev:           03473
Checksum:              285

Satellite: RAX-2
Catalog number: 37853
Epoch time:      12166.55037444
Element set:     203
Inclination:      101.7159 deg
RA of node:       205.5346 deg
Eccentricity:    0.0246781
Arg of perigee:   358.4719 deg
Mean anomaly:     001.5698 deg
Mean motion:   14.80049829 rev/day
Decay rate:      4.951e-05 rev/day^2
Epoch rev:            3400
Checksum:              304

Satellite: AUBIESAT
Catalog number: 37854
Epoch time:      12165.89759026
Element set:    0204
Inclination:      101.7165 deg
RA of node:       204.8229 deg
Eccentricity:    0.0246797
Arg of perigee:   359.8360 deg
Mean anomaly:     000.2719 deg
Mean motion:   14.80423964 rev/day
Decay rate:      5.327e-05 rev/day^2
Epoch rev:           03390
Checksum:              311

Satellite: HRBE
Catalog number: 37855
Epoch time:      12165.97849439
Element set:    0208
Inclination:      101.7194 deg
RA of node:       204.9043 deg
Eccentricity:    0.0248459
Arg of perigee:   359.5765 deg
Mean anomaly:     000.5188 deg
Mean motion:   14.80280225 rev/day
Decay rate:      4.872e-05 rev/day^2
Epoch rev:           03391
Checksum:              322

Satellite: RS-39
Catalog number: 38051
Epoch time:      12166.44458451
Element set:     422
Inclination:      051.6378 deg
RA of node:       172.9045 deg
Eccentricity:    0.0013263
Arg of perigee:   028.8630 deg
Mean anomaly:     106.3043 deg
Mean motion:   15.24305501 rev/day
Decay rate:      9.292e-05 rev/day^2
Epoch rev:            2155
Checksum:              275

Satellite: E-STAR
Catalog number: 38079
Epoch time:      12166.47674800
Element set:     288
Inclination:      069.4946 deg
RA of node:       321.8730 deg
Eccentricity:    0.0745652
Arg of perigee:   251.2562 deg
Mean anomaly:     100.6227 deg
Mean motion:   14.14613241 rev/day
Decay rate:     2.8422e-04 rev/day^2
Epoch rev:            1720
Checksum:              292

Satellite: GOLIAT
Catalog number: 38085
Epoch time:      12165.82964299
Element set:     266
Inclination:      069.4980 deg
RA of node:       323.5968 deg
Eccentricity:    0.0750721
Arg of perigee:   252.3007 deg
Mean anomaly:     099.4894 deg
Mean motion:   14.13613711 rev/day
Decay rate:     2.8370e-04 rev/day^2
Epoch rev:            1710
Checksum:              322

Satellite: HORYU-2
Catalog number: 38340
Epoch time:      12165.89967508
Element set:      32
Inclination:      098.1734 deg
RA of node:       105.6194 deg
Eccentricity:    0.0012812
Arg of perigee:   346.4388 deg
Mean anomaly:     013.6554 deg
Mean motion:   14.69980213 rev/day
Decay rate:      1.637e-05 rev/day^2
Epoch rev:             399
Checksum:              314



Read previous mail | Read next mail


 16.09.2025 07:50:35lGo back Go up